Regional Weather Roundup
Issued by NWS Cleveland, OH

Home | Current Version | Previous Version | Graphics & Text | Print | Product List | Glossary On
Versions: 1 2 3 4 5 6 7 8 9 10 11 12 13 14 15 16 17 18 19 20 21 22 23 24 25 26 27 28 29 30 31 32 33 34 35 36 37 38 39 40 41 42 43 44 45 46 47 48 49 50
000
ASUS41 KCLE 272300
RWRCLE
OHIO REGIONAL WEATHER ROUNDUP
NATIONAL WEATHER SERVICE WILMINGTON, OH
700 PM EDT FRI MAR 27 2015

NOTE: "FAIR" INDICATES FEW OR NO CLOUDS BELOW 12,000 FEET WITH NO
SIGNIFICANT WEATHER AND/OR OBSTRUCTIONS TO VISIBILITY.

OHZ001>008-015>018-024>027-034-035-043-044-280000-
   NORTHWEST OHIO

CITY           SKY/WX    TMP DP  RH WIND       PRES   REMARKS
DEFIANCE       MOCLDY    29   7  39 N10       30.05R WCI  20
FINDLAY        MOCLDY    29   8  41 N12       30.03R WCI  19
TOLEDO EXPRESS MOCLDY    25  12  58 N12       30.05R WCI  14
TOLEDO EXEC    CLOUDY    26  16  65 N9        30.07R WCI  17
LIMA           CLOUDY    28  11  48 N8        30.02R WCI  20
$$

OHZ009>014-019>023-028>033-038-089-280000-
   NORTHEAST OHIO

CITY           SKY/WX    TMP DP  RH WIND       PRES   REMARKS
CLE-HOPKINS    FLURRIES  23  15  71 N17       30.05R WCI   9
CLE-LAKEFRONT  CLOUDY    24  16  71 N15       30.03R WCI  11
CUY CO. ARPT   NOT AVBL
LORAIN-ELYRIA  SNOW      22  18  85 N14       30.03R VSB 1/2 WCI   9
ASHTABULA      CLOUDY    22  12  65 N16G23    30.01R WCI   8
AKRON-CANTON   LGT SNOW  24  18  77 N12G22    29.96R WCI  13
WOOSTER        LGT SNOW  23  18  80 N13G21    29.98R WCI  11
MANSFIELD      LGT SNOW  23  20  88 N13       29.98R VSB 3/4 WCI  11
YOUNGSTOWN     FLURRIES  24  16  71 N21G26    29.95R WCI   9
$$

OHZ042-051>053-060>062-070>072-077>081-280000-
  SOUTHWEST OHIO

CITY           SKY/WX    TMP DP  RH WIND       PRES   REMARKS
CINC-COVINGTON CLOUDY    32  16  51 NW13      30.03R WCI  22
CINC-LUNKEN    CLOUDY    32  14  47 NW12      30.07R WCI  23
HAMILTON       CLOUDY    31  15  52 NW13      30.06S WCI  21
DAYTON         NOT AVBL
WRIGHT-PAT AFB NOT AVBL
DAYTON GENERAL CLOUDY    29  14  53 NW13      30.02R WCI  19
WILMINGTON     CLOUDY    28  12  51 NW17G24   30.01R WCI  16
$$

OHZ036-037-039>041-045>050-054>059-063>069-073>076-082>088-280000-
  CENTRAL AND SOUTHEAST OHIO

CITY           SKY/WX    TMP DP  RH WIND       PRES   REMARKS
COLUMBUS       CLOUDY    28  12  51 NW15G22   30.01R WCI  16
OSU AIRPORT    CLOUDY    27  10  49 NW16      30.01R WCI  15
BOLTON FIELD   CLOUDY    27  16  63 N16G23    30.02R WCI  14
RICKENBACK AFB NOT AVBL
NEWARK         CLOUDY    28  16  60 NW14      29.99R WCI  17
MARION         LGT SNOW  24  18  77 NW14      30.02R WCI  12
LANCASTER      CLOUDY    29  16  58 NW14G22   30.01R WCI  18
ZANESVILLE     CLOUDY    28  14  55 NW9G21    29.98R WCI  19
NEW PHILLY     CLOUDY    28  19  69 N9        29.98R WCI  19
$$



USA.gov is the U.S. government's official web portal to all federal, state and local government web resources and services.